Theta_e
281 283 283 284 285 285 285 284 282 279 281 286 287 287 284 285 287 287 287 290 294 298 300 301 304 307 309 311 314 318 321 322 322 322 324 325 325 327
282 281 282 283 282 283 284 284 284 283 280 286 288 290 285 285 287 286 286 288 290 294 297 298 300 303 309 310 312 315 318 319 320 322 323 324 326 327
281 281 281 282 282 283 284 285 285 285 282 285 288 288 286 285 285 285 286 285 286 289 294 296 297 298 300 307 311 312 315 318 319 319 320 321 323 325
278 278 279 282 281 282 281 282 284 285 284 282 286 288 284 285 284 283 284 284 284 286 292 293 295 297 297 298 300 303 309 310 310 312 313 314 315 317
275 276 277 278 279 280 278 282 283 284 284 283 283 286 283 282 283 283 283 282 283 285 287 288 291 293 295 296 296 296 297 299 301 303 305 307 310 311
271 274 277 277 279 279 278 280 281 280 283 284 284 285 284 283 281 280 281 281 281 283 284 285 287 288 291 292 292 293 294 295 295 296 297 299 301 303
269 272 274 278 282 282 281 281 281 281 281 282 283 282 283 281 281 280 280 279 280 279 280 281 281 282 283 286 287 291 292 292 292 292 293 294 295 297
271 272 275 276 279 281 282 283 284 281 280 280 281 281 282 281 280 280 279 278 280 278 278 279 278 280 280 282 287 288 288 289 289 290 290 290 291 292
272 275 276 278 276 277 280 282 281 281 282 281 278 279 278 279 279 278 278 278 278 276 277 276 276 277 279 280 285 287 287 287 287 287 288 288 288 288
275 275 274 276 276 279 278 277 278 278 278 280 280 280 280 280 279 279 278 276 276 276 276 275 275 275 277 278 282 286 286 285 285 286 286 286 287 287
276 276 276 276 280 283 277 275 276 276 279 280 280 281 281 282 281 278 276 273 275 274 275 274 274 274 274 275 277 282 285 285 284 284 285 285 286 285
276 276 279 279 281 281 278 275 273 274 275 275 275 276 276 276 278 274 273 269 270 271 273 271 273 273 275 274 275 275 276 281 284 284 285 285 286 281
276 275 275 280 281 282 283 275 275 276 273 270 272 273 272 272 271 271 271 269 267 268 273 272 270 271 271 271 273 273 274 275 276 277 281 282 285 283
276 275 275 281 281 283 281 282 282 279 267 266 268 270 270 270 270 269 269 268 269 270 268 269 270 268 268 271 270 271 272 273 273 272 270 276 279 281
276 276 280 281 282 279 280 281 277 270 268 266 265 266 268 269 269 268 266 264 265 265 269 267 269 266 266 265 266 267 269 270 271 271 272 272 271 272
278 273 275 278 280 279 273 275 271 270 269 269 267 266 264 264 265 264 266 267 263 264 268 266 265 266 264 264 266 265 267 267 267 266 266 269 270 268
268 264 266 266 268 270 270 272 271 267 268 267 266 266 266 265 265 264 265 261 262 263 264 264 263 262 262 263 261 261 263 264 266 266 266 262 265 264
270 270 273 272 271 270 270 271 269 270 270 270 267 266 266 266 266 265 263 262 262 260 260 262 262 264 263 263 268 260 260 260 262 261 261 261 261 262
278 278 274 274 273 270 270 271 270 269 268 268 270 270 269 267 265 264 264 266 265 264 262 262 260 258 257 259 267 274 267 265 264 263 263 259 259 266
272 271 271 272 272 271 270 270 270 270 270 270 270 270 269 269 267 267 267 265 265 267 268 269 268 267 265 264 264 268 275 268 266 265 266 268 270 272
271 271 271 270 270 270 270 270 270 270 270 270 270 270 270 270 269 270 270 269 269 268 267 268 269 269 266 266 264 262 265 272 269 262 259 258 258 259
265 265 267 267 267 268 269 268 269 269 270 270 270 269 269 269 268 267 267 266 265 265 265 264 263 260 258 258 256 256 257 258 265 270 271 268 258 256
263 263 263 262 263 264 266 266 267 267 267 267 267 266 264 263 262 262 261 260 259 258 256 258 256 256 254 255 254 253 252 253 253 256 257 269 270 271
Wind_Speed
8 8 7 7 7 8 8 9 10 14 16 8 9 3 3 3 5 5 5 11 15 17 17 17 18 20 27 27 27 25 24 24 23 23 25 22 27 29
7 9 9 7 8 8 8 9 9 12 17 8 11 12 6 4 5 4 4 10 11 16 17 20 22 24 17 23 25 25 24 25 25 23 23 25 24 30
8 8 10 9 8 7 7 8 9 10 14 13 10 8 6 6 5 3 3 4 4 11 15 17 20 21 25 11 21 22 24 20 14 14 18 23 25 24
10 9 10 6 9 8 7 10 9 9 10 17 12 10 6 3 5 5 3 3 4 7 12 14 17 17 21 25 25 21 4 10 12 8 9 8 4 2
7 7 7 7 8 7 6 8 7 7 8 9 12 5 3 2 3 4 2 3 3 7 9 11 14 18 19 21 24 26 22 20 17 15 14 14 13 15
5 6 6 6 7 8 8 9 8 8 8 8 8 6 4 1 2 2 4 2 3 1 5 6 9 14 18 18 20 18 20 20 21 21 20 19 17 16
4 5 5 7 12 11 6 8 7 7 7 7 6 2 3 2 2 2 3 3 1 2 3 2 4 4 7 11 11 14 14 15 19 19 20 17 18 15
5 5 5 6 9 14 14 13 10 8 7 5 5 5 5 3 3 2 2 3 3 2 3 3 4 4 4 5 11 12 11 12 15 15 14 17 17 15
5 5 5 4 6 6 10 12 8 11 12 7 7 4 5 3 4 3 2 2 2 2 3 3 4 3 2 4 10 6 7 10 12 13 13 13 12 11
5 5 5 5 6 6 5 6 6 5 5 5 6 6 4 4 4 3 2 2 2 1 1 1 2 2 4 4 7 6 5 6 7 9 8 7 7 8
5 6 5 5 8 11 2 5 6 4 7 11 9 8 10 12 8 3 2 2 2 1 1 1 1 2 1 2 3 8 6 3 3 6 5 4 2 2
5 6 8 8 10 10 5 3 5 4 5 6 6 6 6 6 9 4 2 2 1 2 2 1 2 3 1 1 2 2 2 6 4 1 3 3 5 2
5 4 4 10 11 12 10 4 5 4 5 4 5 4 3 4 3 3 3 1 1 1 3 1 1 2 2 3 3 3 3 3 4 5 9 9 6 3
7 5 5 12 13 13 9 9 12 7 1 3 3 4 4 2 1 1 1 1 1 2 3 2 2 2 2 2 2 3 2 2 1 0 1 4 6 9
5 8 14 14 14 9 11 13 8 1 1 1 2 3 3 3 5 2 2 4 3 2 2 2 1 1 2 1 2 2 3 2 1 1 1 2 1 1
8 5 7 9 10 8 3 5 2 3 3 3 3 2 2 3 3 2 3 3 3 3 3 3 3 2 1 1 2 2 1 2 2 2 2 3 4 5
3 1 1 1 3 3 3 4 3 2 3 3 2 2 2 1 2 1 1 2 1 2 4 3 4 3 0 3 2 1 2 2 2 2 4 3 3 3
3 4 5 4 5 3 3 4 3 4 4 3 3 3 3 3 2 1 2 2 2 2 2 2 3 3 4 3 5 1 2 1 3 3 3 2 3 3
6 5 2 2 2 3 4 4 2 2 2 2 3 3 3 3 2 2 2 1 2 2 3 2 2 3 2 1 3 7 1 0 0 2 2 2 3 5
0 1 2 2 2 2 1 2 1 2 1 2 2 2 2 3 2 3 2 2 2 2 1 1 1 2 3 3 2 2 6 1 2 1 2 2 3 10
1 2 1 1 2 2 2 2 3 2 2 3 3 3 3 3 2 2 2 2 2 1 1 1 1 5 1 2 2 3 3 5 1 4 2 2 3 2
2 2 2 2 2 2 2 2 2 2 2 2 1 1 0 1 1 1 1 1 1 1 1 1 3 3 3 3 3 3 2 4 5 7 7 5 4 3
3 3 3 3 2 3 2 2 1 1 1 1 0 1 1 2 1 2 2 2 2 1 1 0 2 2 1 2 3 2 2 3 2 4 4 8 9 12
Wind_Direction
265 260 261 263 257 266 265 262 268 290 286 291 299 251 267 268 278 281 303 307 315 339 340 333 320 296 258 249 249 246 245 246 246 249 247 245 246 240
277 270 264 266 265 263 262 259 254 266 281 290 286 295 278 271 263 273 279 309 314 331 350 354 352 358 293 248 245 243 242 246 246 245 249 251 250 240
281 278 278 271 266 268 268 265 261 260 271 284 281 285 276 271 263 243 276 293 299 331 342 354 2 9 16 333 246 244 243 243 230 233 242 244 243 241
295 289 283 282 280 276 273 274 269 269 271 283 286 284 244 251 274 289 280 269 292 317 337 356 360 5 26 29 29 38 68 140 123 107 94 84 98 140
290 289 285 295 287 288 282 292 285 278 271 270 283 271 266 279 304 260 10 295 271 301 334 358 6 5 19 35 35 38 33 48 51 64 67 76 81 98
289 286 287 283 291 298 293 292 296 300 291 277 280 280 261 295 273 311 277 256 288 294 307 350 4 1 20 25 39 34 38 33 49 48 55 57 62 71
283 287 278 283 295 303 307 307 302 304 306 302 290 281 276 297 304 353 296 306 314 359 306 357 0 353 1 19 31 32 44 41 47 43 39 51 52 54
282 286 280 280 296 311 314 319 333 323 325 313 316 310 304 297 319 313 308 336 332 35 341 339 24 345 352 8 15 32 38 57 57 53 48 44 45 44
264 273 294 290 299 295 312 324 316 324 336 332 316 323 310 351 306 300 300 307 290 4 350 323 357 323 8 345 360 20 36 43 57 59 55 41 49 43
255 254 247 278 294 303 323 314 311 310 317 333 336 319 282 305 317 307 316 314 292 340 15 311 4 321 338 357 347 8 79 48 55 67 61 57 40 44
268 264 256 262 279 310 305 308 310 296 320 332 333 335 351 353 350 304 329 28 316 326 305 330 358 274 10 314 337 354 8 58 13 60 35 41 72 79
262 264 267 270 289 292 285 284 307 292 317 331 330 331 338 340 11 33 352 3 306 325 287 32 331 311 348 70 1 16 359 357 311 284 252 215 243 111
257 260 250 278 287 289 291 210 243 270 305 321 313 311 322 339 356 12 18 78 278 276 311 87 357 1 51 319 358 1 3 8 3 7 359 359 328 187
244 241 247 276 281 280 294 284 292 307 13 335 334 317 321 305 301 318 317 323 285 199 302 89 75 77 14 356 346 353 16 24 32 253 294 343 346 349
220 241 262 270 272 291 291 292 295 260 246 250 264 267 262 295 308 321 323 338 347 10 33 40 104 123 106 166 260 323 10 343 51 105 343 31 324 71
268 273 262 261 252 255 280 284 263 235 215 231 240 232 297 333 322 335 339 355 29 326 356 31 54 119 93 162 177 271 335 324 359 19 4 353 359 1
234 341 302 282 266 260 262 258 265 232 221 214 212 239 257 223 260 302 324 356 41 310 316 336 18 49 77 173 340 22 351 351 10 22 41 357 319 300
196 213 239 233 248 247 257 259 246 249 233 210 214 204 217 210 228 242 159 183 202 255 290 306 4 13 359 323 203 282 3 343 341 21 32 42 311 297
246 249 208 204 224 225 240 245 242 278 297 239 232 219 215 219 190 225 232 232 280 247 238 179 129 108 80 259 304 195 150 188 80 341 179 171 227 289
298 272 263 239 243 236 236 235 252 265 265 269 262 248 221 220 206 219 228 216 212 229 232 212 197 191 165 204 205 274 207 153 172 235 264 253 250 294
326 314 302 283 271 259 250 240 235 237 236 236 230 224 219 190 182 176 161 140 133 100 97 102 1 328 100 62 40 321 304 343 162 178 209 178 231 265
325 314 299 292 286 279 268 257 247 244 246 247 221 131 176 183 146 133 130 150 124 125 155 6 349 27 57 111 210 239 278 319 315 310 317 321 166 263
340 336 328 325 316 304 300 286 279 305 339 327 339 128 150 120 121 107 112 113 136 126 158 345 359 31 90 159 171 232 294 294 316 330 305 310 314 299